Regional Weather Roundup
Issued by NWS

Home | Current Version | Previous Version | Graphics & Text | Print | Product List | Glossary On
Versions: 1 2 3 4 5 6 7 8 9 10 11 12 13 14 15 16 17 18 19 20 21 22 23 24 25 26 27 28 29 30 31 32 33 34 35 36 37 38 39 40 41 42 43 44 45 46 47 48 49 50
000
ASUS45 KTFX 041004
RWRMT
MONTANA HOURLY WEATHER ROUNDUP
NATIONAL WEATHER SERVICE GREAT FALLS MT
304 AM MST WED MAR 4 2015

NOTE: "FAIR" INDICATES FEW OR NO CLOUDS BELOW 12000 FEET WITH NO
SIGNIFICANT WEATHER AND/OR OBSTRUCTIONS TO VISIBILITY.

* THESE STATIONS ARE NOT UNDER NWS QUALITY CONTROL. THEY DO NOT
   REPORT WEATHER SUCH AS PRECIPITATION OR FOG.

MTZ001>007-043-041100-
WEST OF THE DIVIDE
CITY           SKY/WX    TMP DP  RH WIND       PRES   REMARKS
KALISPELL      CLEAR      7   3  83 CALM      30.18R
MISSOULA       CLEAR     14  10  84 CALM      30.20R
BUTTE          FAIR       3   0  87 CALM      30.05S
MULLAN PASS    CLEAR     12   5  73 S3        30.02R
* ANACONDA     CLEAR     10   5  80 SE5        N/A   WCI   1
* ESSEX        N/A        7  -3  63 S8         N/A   WCI  -6
* LINCOLN      N/A       -4 -10  75 NE2        N/A
* LOOKOUT PASS N/A       11   6  80 N/A        N/A
* POLSON       N/A       12   5  73 SE1        N/A
* RONAN APT    CLEAR     16   9  74 N/A        N/A
* SEELEY LAKE  N/A        2  -4  76 N/A        N/A
* THOMP F APT  CLEAR     11  -3  53 N6G15      N/A   WCI   1
$$

MTZ008-052>055-041100-
SOUTHWEST MONTANA
CITY           SKY/WX    TMP DP  RH WIND       PRES   REMARKS
BOZEMAN        CLEAR      0  -6  75 SE6       30.12S WCI -12
DILLON         CLEAR      1  -4  79 SE3       30.06R
* W YELLOWSTON PTCLDY    -9 -16  71 N/A        N/A
* THREE FORKS  CLEAR      3  -4  72 N/A        N/A
* BOULDER HILL N/A        2  -4  76 N/A        N/A
* MONIDA PASS  N/A        4  -3  72 W6         N/A   WCI  -7
* RAYNOLDS PAS N/A        0 -25  29 N/A        N/A
* WHITEHALL    N/A        5  -3  69 N4         N/A
* WISE RIVER   N/A        8   0  70 SE2        N/A
$$

MTZ009>010-012-014-046-048-049-054-041100-
EAST SLOPES AND CENTRAL MONTANA
CITY           SKY/WX    TMP DP  RH WIND       PRES   REMARKS
CUT BANK       CLEAR      0  -8  68 W6        30.12F WCI -12
GREAT FALLS    CLOUDY     7   1  76 SW7       30.17S WCI  -5
HELENA         PTCLDY     9   0  66 W6        30.16R WCI  -1
* DEARBORN     N/A       -2  -6  83 S2         N/A
* EAST GLACIER N/A       -3  -9  75 NW7        N/A   WCI -17
* MONARCH      N/A        0  -5  79 S7         N/A   WCI -13
* PENDROY      N/A        3  -8  60 W4G11      N/A
* ROGERS PASS  N/A       -2  -9  72 NW2        N/A
* SWEET GRASS  N/A        6  -9  49 W12        N/A   WCI -10
$$

MTZ011-013-016-021-035-040-045-047-050-051-041100-
NORTH CENTRAL MONTANA
CITY           SKY/WX    TMP DP  RH WIND       PRES   REMARKS
HAVRE          CLEAR      0  -6  75 W3        30.22S
LEWISTOWN      CLEAR      3  -6  66 NW10      30.11S WCI -12
* N BAR RANCH  HAZE       3  -6  66 NW14      30.07S WCI -15
* CHESTER      N/A        5  -7  57 W7G12      N/A   WCI  -7
* DENTON       N/A        5  -4  66 W8         N/A   WCI  -8
* GEYSER       N/A        7   3  83 W13        N/A   WCI  -9
* JUDITH GAP   N/A        2  -5  72 N14        N/A   WCI -16
* LOMA         N/A        7  -2  66 SW3        N/A
$$

MTZ017>020-022>027-061-062-041100-
NORTHEAST MONTANA
CITY           SKY/WX    TMP DP  RH WIND       PRES   REMARKS
GLASGOW        PTCLDY    -2  -9  72 NW8       30.21S WCI -17
JORDAN         CLEAR      3   0  87 N10       30.18R WCI -12
SIDNEY         CLEAR     -6 -11  78 W5        30.22S WCI -18
WOLF POINT     CLEAR     -4 -11  71 W6        30.24R WCI -17
* BEAVER HILL  N/A       -4 -11  71 NW10G15    N/A   WCI -21
* CIRCLE       N/A        2  -3  79 NW5        N/A   WCI  -8
* LINDSAY DVD  N/A       -4 -11  71 NW16G22    N/A   WCI -25
* NAVAJO       N/A      -11 -16  78 NW9        N/A   WCI -29
* SACO         N/A       -4 -10  75 S3         N/A
$$

MTZ028>042-056>058-041100-
SOUTHCENTRAL AND SOUTHEAST MONTANA
CITY           SKY/WX    TMP DP  RH WIND       PRES   REMARKS
BAKER          CLEAR      1  -4  79 NW15      30.08R WCI -18
BILLINGS       MOCLDY    10  -2  58 NW17      30.13R WCI  -8
LIVINGSTON     CLEAR      1  -8  65 NW13      30.08S WCI -17
MILES CITY     CLOUDY     7  -2  66 NW8       30.17R WCI  -6
* LAUREL APT   PTCLDY     3  -8  60 N/A        N/A
* ROUNDUP APT  CLEAR      9  -9  43 N/A        N/A
* ALZADA       N/A        5  -2  72 W8         N/A   WCI  -8
* HYSHAM       N/A        7  -7  52 NW1        N/A
* REED POINT   N/A        0  -3  87 SE2        N/A
* ROSCOE HILL  N/A        4  -9  54 S6         N/A   WCI  -7
$$

REGIONAL REPORTS...DAKOTAS
CITY           SKY/WX    TMP DP  RH WIND       PRES   REMARKS
WILLISTON      CLEAR     -8 -15  71 NW12      30.18R WCI -28
DICKINSON      CLEAR     -2 -11  65 NW18G25   30.06R WCI -24
CROSBY         CLEAR    -11 -17  74 NW16G21   30.17R WCI -34
WATFORD CITY   CLEAR     -4 -13  65 NW13      30.14R WCI -23
BISMARCK       PTCLDY     1  -6  72 NW18      30.12R WCI -20
GRAND FORKS    CLEAR     -6 -15  64 NW10      30.09R WCI -23
FARGO          CLEAR     -2 -11  65 W9        30.10R WCI -18
BUFFALO SD     CLEAR      1  -2  87 NW15      29.99R WCI -18
RAPID CITY     CLEAR      1  -8  65 NW7       30.08S WCI -12
$$

REGIONAL REPORTS...WYOMING/IDAHO/WASHINGTON
CITY           SKY/WX    TMP DP  RH WIND       PRES   REMARKS
GILLETTE       PTCLDY     1  -6  72 W13       30.03S WCI -17
SHERIDAN       PTCLDY     5  -8  54 NW13      30.09R WCI -12
CODY           PTCLDY     1  -2  87 CALM      30.04S
YELLOWSTONE LA PTCLDY   -17 -20  86 NW3       29.94R
SALMON         CLOUDY    19   7  59 NW6       30.14S WCI  11
MULLAN PASS    CLEAR     12   5  73 S3        30.02S
SAND POINT     CLEAR     18  14  84 CALM      30.22R
SPOKANE        CLEAR     25  12  58 SW6       30.19R WCI  18

$$




USA.gov is the U.S. government's official web portal to all federal, state and local government web resources and services.